#timestamp,LO_Frequency,Hit,StdDev 
1506819615.1,286047007.5,N
1506819635.9,286047003.0,N
1506819655.7,286047004.5,N
1506819675.5,286047003.7,N
1506819695.4,286046998.3,N
1506819715.2,286046997.7,N
1506819735.0,286046995.5,N
1506819735.9,286046995.5,N
1506819755.8,286046991.8,N
1506819775.6,286046994.4,N
1506819795.4,286046992.7,N
1506819815.2,286046986.9,N
1506819835.1,286046984.3,N
1506819836.0,286046984.3,N
1506819855.8,286046981.9,N
1506819875.6,286046975.7,N
1506819895.5,286046975.2,N
1506819915.3,286046978.5,N
1506819935.1,286046979.9,N
1506819955.9,286046977.9,N
1506819975.7,286046976.8,N
1506819995.5,286046972.7,N
1506820015.4,286046971.4,N
1506820035.2,286046971.4,N
1506820055.0,286046971.9,N
1506820055.9,286046971.9,N
1506820075.8,286046971.4,N
1506820095.6,286046973.6,N
1506820115.4,286046972.9,N
1506820135.3,286046975.0,N
1506820155.1,286046976.2,N
1506820156.0,286046976.2,N
1506820175.8,286046977.7,N
1506820195.7,286046977.2,N
1506820215.5,286046975.4,N
1506820235.3,286046971.9,Y
1506820255.2,286046993.2,P
1506820275.9,286046992.9,N
1506820295.7,286046990.9,N
1506820315.5,286046990.3,N
1506820335.4,286046993.1,N
1506820355.2,286046991.2,N
1506820375.0,286046987.3,N
1506820376.0,286046987.3,Y
1506820395.8,286046995.2,P
1506820415.6,286046995.0,N
1506820435.4,286046995.6,N
1506820455.3,286046995.1,N
1506820475.1,286046995.4,N
1506820495.8,286046997.9,N
1506820515.7,286046998.0,N
1506820535.5,286046996.3,N
1506820555.3,286046994.3,N
1506820575.2,286046992.5,Y
1506820595.9,286046995.0,P
1506820615.7,286046997.9,P
1506820635.6,286046998.6,N
1506820655.4,286047003.6,N
1506820675.2,286047004.7,N
1506820695.1,286047003.6,N
1506820696.0,286047003.6,N
1506820715.8,286047001.4,N
1506820735.6,286047001.4,N
1506820755.5,286047001.5,N
1506820775.3,286047002.2,N
1506820795.1,286046998.1,N
1506820815.8,286046999.4,N
1506820835.7,286046996.5,N
1506820855.5,286046999.6,N
1506820875.3,286046998.9,N
1506820895.2,286046999.6,N
1506820915.9,286046996.8,N
1506820935.7,286046999.6,N
1506820955.6,286046994.1,N
1506820975.4,286046992.7,N
1506820995.2,286046994.6,N
1506821015.1,286046997.8,N
1506821016.0,286046997.8,N
1506821035.8,286047000.6,N
1506821055.6,286047001.6,N
1506821075.5,286047009.0,N
1506821095.3,286047013.4,Y
1506821115.1,286047020.9,P
1506821135.9,286047020.7,N
1506821155.7,286047024.1,N
1506821175.5,286047027.7,N
1506821195.4,286047031.1,Y
1506821215.2,286047010.0,P
1506821235.0,286047009.4,N
1506821235.9,286047009.4,N
1506821255.8,286047010.4,N
1506821275.6,286047008.1,N
1506821295.4,286047009.4,N
1506821315.3,286047011.2,Y
1506821335.1,286047003.3,P
1506821336.0,286047003.3,N
1506821355.8,286047003.4,N
1506821375.6,286047006.4,N
1506821395.5,286047005.1,N
1506821415.3,286047008.6,Y
1506821435.2,286047003.4,P
1506821455.9,286047005.6,P
1506821475.7,286047003.2,P
1506821495.5,286047003.3,N
1506821515.4,286047005.1,Y
1506821535.2,286047005.8,P
1506821555.0,286047003.9,P
1506821556.0,286047003.9,P
1506821575.8,286047004.7,Y
1506821595.6,286046999.9,P
1506821615.5,286046996.5,N
1506821635.3,286046999.9,N
1506821655.1,286047002.5,N
1506821675.8,286047002.1,N
1506821695.7,286047000.2,N
1506821715.5,286047002.1,N
1506821735.3,286047005.1,N
1506821755.2,286047005.9,N
1506821775.9,286047002.9,N
1506821795.7,286047000.4,N
1506821815.6,286046996.1,N
1506821835.4,286046992.9,N
1506821855.2,286046989.2,Y
1506821875.1,286046987.0,P
1506821876.0,286046987.0,N
1506821895.8,286046986.2,N
1506821915.6,286046982.3,N
1506821935.5,286046981.8,N
1506821955.3,286046979.5,Y
1506821975.1,286046991.0,P
1506821995.9,286046991.5,P
1506822015.7,286046988.9,P
1506822035.5,286046987.0,Y
1506822055.4,286046996.6,P
1506822075.2,286046998.8,N
1506822095.0,286046996.7,N
1506822095.9,286046996.7,N
1506822115.8,286046997.9,N
1506822135.6,286046994.9,N
1506822155.4,286046995.2,N
1506822175.3,286046992.9,N
1506822195.1,286046993.0,N
1506822196.0,286046993.0,N
1506822215.8,286046990.2,Y
1506822235.7,286046994.6,P
1506822255.5,286046992.2,P
1506822275.3,286046993.1,P
1506822295.2,286046992.3,Y
1506822315.9,286046995.5,P
1506822335.7,286046999.5,N
1506822355.6,286046996.6,N
1506822375.4,286046996.8,N
1506822395.2,286046999.1,N
1506822415.1,286046998.3,N
1506822416.0,286046998.3,N
1506822435.8,286047000.9,N
1506822455.6,286046998.5,N
1506822475.4,286046999.5,N
1506822495.3,286046998.3,N
1506822515.2,286046994.0,Y
1506822535.9,286046996.3,P
1506822555.7,286046996.1,P
1506822575.6,286046993.5,P
1506822595.4,286046994.0,Y
1506822615.2,286046996.9,P
1506822635.1,286046995.2,P
1506822636.0,286046995.2,P
1506822655.8,286046997.5,Y
1506822675.6,286047001.7,P
1506822695.5,286047008.7,N
1506822715.3,286047011.9,N
1506822735.1,286047006.5,N
1506822755.8,286047003.9,N
1506822775.7,286047004.4,N
1506822795.5,286047003.5,N
1506822815.3,286047007.2,N
1506822835.2,286047006.7,N
1506822855.9,286047005.3,N
1506822875.7,286047001.3,N
1506822895.6,286047002.6,N
1506822915.4,286047002.3,N
1506822935.2,286047002.2,N
1506822955.1,286047002.8,N
1506822956.0,286047002.8,N
1506822975.8,286047001.2,N
1506822995.6,286047000.8,N
1506823015.5,286046998.9,N
1506823035.3,286046997.7,N
1506823055.1,286047000.9,N
1506823075.9,286047000.0,N
1506823095.7,286046999.4,N
1506823115.5,286047003.1,N
1506823135.3,286047010.1,N
1506823155.2,286047013.0,Y
1506823175.0,286047015.0,P
1506823175.9,286047015.0,N
1506823195.8,286047016.2,N
